星链-5861 (STARLINK-5861 )

导读

STARLINK-5861是美国太空探索技术公司(SpaceX)星链互联网卫星星座中的一员,于2023年3月17日发射入轨。星链项目旨在为全球提供覆盖偏远地区的高速宽带服务,该卫星加入星座后,进一步扩充了星链低轨卫星网络的容量,提升了系统的服务覆盖能力与网络稳定性。

基本信息
目录编号:
55921
目录名称:
STARLINK-5861
国际标识:
2023-037H
轨道中心:
EARTH
卫星名称:
星链-5861
卫星全名:
星链-5861 (STARLINK-5861 )
卫星状态:
在轨 (已飞行1275 天)
发射日期:
2023-03-17 UTC
国别 :
美国 (US)
星等 :
--
该卫星已列入 空间交会检测服务 Space Conjunction Data Service (SCDS) ,当前飞行风险评估等级: 无高风险
轨道信息
数据来源 国际轨道数据
星历时间: 2026-09-12T14:02:42+0800
8小时前
查看轨道信息
半长轴: 6950.228km
偏心率: 0.0003003
轨道倾角: 70.000°
近地点辐角 267.972°
升交点赤经 194.015°
平近点角 92.110°
近地点: 570.003km
远地点: 574.179km
周期: 96.108分钟
每日圈数: 14.983187
详细信息
固有亮度:
5
最大亮度:
2.5
卫星平台:
Starlink v1.5
覆盖范围:
全球
运营商:
太空探索技术公司
运营商所在国:
美国
制造商(研发单位):
太空探索技术公司
制造商所在国:
美国
使用方式:
暂无
卫星简介
星链(Starlink)计划是由太空探索技术公司(SpaceX)提出的一个巨型低轨卫星互联网星座项目,计划在2019年至2024年间在太空搭建由约1.2万颗卫星组成的“星链”网络,其中1584颗将部署在地球上空550千米处的近地轨道,并从2020年开始工作。该卫星仍在工作。
2D轨道图
3D轨道图
轨道高度分析图
轨道倾角分析图
轨道综合分析图
查看轨道综合分析图
交会数据列表
事件ID 空间交会对象 最接近时刻(TCA) 交会距离 交会风险概率(CRP) 交会风险指数(CRI) 操作
CDM_260914-112305-592106-271421
2026-09-14T
11:23:43+0000
1.569 km
极远距离
5.724846E-6 低风险 0.5
与全量物体交会距离演化趋势
与全量物体交会风险概率演化趋势